sat.trackr.live / text

‹ back to catalog

STARLINK-36802

NORAD 67985 · 2026-038AA

PAYLOAD ACTIVE UNKNOWN

§ Identity

Operator
Country
US
Launch date
2026-02-25
Launch site
AFWTR
Launch vehicle
Mass (kg)
RCS (m²)

Purposes: comms

External: N2YO · Heavens-Above · Gunter

§ Orbital elements

Epoch: 2026-05-25T00:36:29.604096Z

Period
93.91 min
Inclination
97.2832°
Eccentricity
0.0002050
Mean motion
15.33450783 rev/d
Perigee alt
464.1 km
Apogee alt
466.9 km
Semi-major
6,843.7 km
B*
6.4077e-4
RAAN
155.9088°
Arg perigee
90.0884°
Mean anomaly
270.0594°
Rev number
1,499

§ Raw data

STARLINK-368021 67985U 26038AA  26145.02534264  .00020672  00000+0  64077-3 0  99912 67985  97.2832 155.9088 0002050  90.0884 270.0594 15.33450783 14999

JSON: /api/v1/satellites/67985 · /tle

For live sub-satellite position, see the globe view (requires WebGL).

§ Visibility from observer

Set your observer location to see the next 7 days of passes ≥ 10°. The values pass through the URL so the page stays shareable.

No JS? Fill the form by hand. The geolocation button needs JavaScript.